EN

Hourly Weather La Couvertoirade

Today, 1 August, Sunday

Time Temperature Precipitation Wind Pressure Humidity
00:00 +11°C° 0 mm 4 mps 698 mmHg 90%
01:00 +11°C° 0 mm 4 mps 698 mmHg 89%
02:00 +11°C° 0 mm 4 mps 697 mmHg 89%
03:00 +11°C° 0 mm 4 mps 697 mmHg 89%
04:00 +11°C° 0 mm 4 mps 697 mmHg 87%
05:00 +11°C° 0 mm 4 mps 698 mmHg 86%
06:00 +12°C° 0 mm 4 mps 698 mmHg 84%
07:00 +13°C° 0 mm 4 mps 698 mmHg 78%
08:00 +14°C° 0 mm 5 mps 699 mmHg 73%
09:00 +15°C° 0 mm 5 mps 699 mmHg 67%
10:00 +16°C° 0 mm 5 mps 699 mmHg 59%
11:00 +19°C° 0 mm 5 mps 699 mmHg 51%
12:00 +21°C° 0 mm 5 mps 699 mmHg 43%
13:00 +21°C° 0 mm 5 mps 699 mmHg 42%
14:00 +21°C° 0 mm 6 mps 699 mmHg 42%
15:00 +21°C° 0 mm 6 mps 699 mmHg 41%
16:00 +20°C° 0 mm 5 mps 699 mmHg 47%
17:00 +19°C° 0 mm 5 mps 699 mmHg 52%
18:00 +17°C° 0 mm 5 mps 699 mmHg 58%
19:00 +15°C° 0 mm 4 mps 700 mmHg 65%
20:00 +14°C° 0 mm 4 mps 700 mmHg 72%
21:00 +12°C° 0 mm 3 mps 700 mmHg 79%
22:00 +11°C° 0 mm 3 mps 700 mmHg 82%
23:00 +12°C° 0 mm 2 mps 700 mmHg 85%

Tomorrow, 2 August, Monday

Time Temperature Precipitation Wind Pressure Humidity
00:00 +10°C° 0 mm 2 mps 700 mmHg 87%
01:00 +10°C° 0 mm 2 mps 700 mmHg 88%
02:00 +10°C° 0 mm 2 mps 700 mmHg 89%
03:00 +9°C° 0 mm 2 mps 700 mmHg 90%
04:00 +10°C° 0 mm 2 mps 700 mmHg 87%
05:00 +12°C° 0 mm 2 mps 700 mmHg 83%
06:00 +12°C° 0 mm 2 mps 701 mmHg 80%
07:00 +15°C° 0 mm 2 mps 701 mmHg 69%
08:00 +17°C° 0 mm 2 mps 701 mmHg 58%
09:00 +20°C° 0 mm 2 mps 702 mmHg 47%
10:00 +21°C° 0 mm 3 mps 702 mmHg 43%
11:00 +22°C° 0 mm 3 mps 702 mmHg 38%
12:00 +25°C° 0 mm 3 mps 702 mmHg 34%
13:00 +25°C° 0 mm 3 mps 701 mmHg 33%
14:00 +25°C° 0 mm 3 mps 701 mmHg 32%
15:00 +26°C° 0 mm 3 mps 701 mmHg 31%
16:00 +25°C° 0 mm 3 mps 701 mmHg 37%
17:00 +22°C° 0 mm 3 mps 701 mmHg 43%
18:00 +21°C° 0 mm 2 mps 701 mmHg 48%
19:00 +19°C° 0 mm 2 mps 701 mmHg 55%
20:00 +17°C° 0 mm 2 mps 701 mmHg 62%
21:00 +15°C° 0 mm 1 mps 701 mmHg 70%
22:00 +15°C° 0 mm 1 mps 701 mmHg 71%
23:00 +14°C° 0 mm 1 mps 701 mmHg 72%

Day after tomorrow, 3 August, Tuesday

Time Temperature Precipitation Wind Pressure Humidity
00:00 +14°C° 0 mm 1 mps 700 mmHg 74%
01:00 +14°C° 0 mm 1 mps 700 mmHg 73%
02:00 +14°C° 0 mm 1 mps 700 mmHg 72%
03:00 +14°C° 0 mm 1 mps 700 mmHg 71%
04:00 +14°C° 0 mm 1 mps 700 mmHg 69%
05:00 +15°C° 0 mm 1 mps 700 mmHg 68%
06:00 +16°C° 0 mm 1 mps 701 mmHg 67%
07:00 +19°C° 0 mm 1 mps 701 mmHg 61%
08:00 +21°C° 0 mm 1 mps 701 mmHg 55%
09:00 +23°C° 0 mm 1 mps 701 mmHg 49%
10:00 +24°C° 0 mm 1 mps 701 mmHg 46%
11:00 +25°C° 0 mm 1 mps 701 mmHg 43%
12:00 +26°C° 0 mm 1 mps 701 mmHg 41%
13:00 +27°C° 0 mm 2 mps 701 mmHg 40%
14:00 +27°C° 0 mm 2 mps 700 mmHg 39%
15:00 +27°C° 0 mm 2 mps 700 mmHg 38%
16:00 +25°C° 0 mm 2 mps 700 mmHg 46%
17:00 +24°C° 0 mm 2 mps 700 mmHg 54%
18:00 +21°C° 0 mm 2 mps 699 mmHg 62%
19:00 +20°C° 0.2 mm 2 mps 699 mmHg 70%
20:00 +18°C° 0.2 mm 2 mps 699 mmHg 78%
21:00 +17°C° 0.2 mm 2 mps 700 mmHg 86%
22:00 +18°C° 0.4 mm 1 mps 700 mmHg 89%
23:00 +16°C° 0.4 mm 1 mps 700 mmHg 91%

4 August, Wednesday

Time Temperature Precipitation Wind Pressure Humidity
00:00 +16°C° 0.4 mm 1 mps 700 mmHg 94%
01:00 +16°C° 0.9 mm 1 mps 699 mmHg 94%
02:00 +16°C° 0.9 mm 2 mps 699 mmHg 95%
03:00 +15°C° 0.9 mm 2 mps 699 mmHg 96%
04:00 +15°C° 0.2 mm 2 mps 699 mmHg 95%
05:00 +15°C° 0.2 mm 2 mps 700 mmHg 94%
06:00 +14°C° 0.2 mm 2 mps 700 mmHg 93%
07:00 +16°C° 0 mm 2 mps 700 mmHg 83%
08:00 +17°C° 0 mm 3 mps 701 mmHg 74%
09:00 +18°C° 0 mm 3 mps 701 mmHg 65%
10:00 +20°C° 0 mm 3 mps 701 mmHg 58%
11:00 +21°C° 0 mm 4 mps 701 mmHg 52%
12:00 +23°C° 0 mm 4 mps 701 mmHg 45%
13:00 +23°C° 0 mm 5 mps 701 mmHg 45%
14:00 +23°C° 0 mm 5 mps 701 mmHg 45%
15:00 +23°C° 0 mm 5 mps 701 mmHg 45%
16:00 +22°C° 0 mm 5 mps 701 mmHg 51%
17:00 +21°C° 0 mm 5 mps 701 mmHg 56%
18:00 +20°C° 0 mm 5 mps 702 mmHg 62%
19:00 +18°C° 0 mm 4 mps 702 mmHg 70%
20:00 +16°C° 0 mm 3 mps 702 mmHg 78%
21:00 +14°C° 0 mm 3 mps 702 mmHg 86%
22:00 +13°C° 0 mm 3 mps 702 mmHg 87%
23:00 +13°C° 0 mm 3 mps 701 mmHg 87%

5 August, Thursday

Time Temperature Precipitation Wind Pressure Humidity
00:00 +13°C° 0 mm 3 mps 701 mmHg 87%
01:00 +12°C° 0 mm 3 mps 701 mmHg 87%
02:00 +12°C° 0 mm 3 mps 701 mmHg 87%
03:00 +12°C° 0 mm 3 mps 701 mmHg 87%
04:00 +12°C° 0 mm 3 mps 701 mmHg 85%
05:00 +12°C° 0 mm 3 mps 701 mmHg 84%
06:00 +13°C° 0 mm 3 mps 701 mmHg 82%
07:00 +14°C° 0 mm 3 mps 701 mmHg 75%
08:00 +15°C° 0 mm 4 mps 701 mmHg 69%
09:00 +17°C° 0 mm 4 mps 702 mmHg 62%
10:00 +18°C° 0 mm 4 mps 702 mmHg 58%
11:00 +20°C° 0 mm 4 mps 702 mmHg 54%
12:00 +21°C° 0 mm 5 mps 702 mmHg 49%
13:00 +21°C° 0 mm 5 mps 701 mmHg 50%
14:00 +21°C° 0 mm 5 mps 701 mmHg 51%
15:00 +21°C° 0 mm 5 mps 701 mmHg 52%
16:00 +21°C° 0 mm 4 mps 701 mmHg 56%
17:00 +20°C° 0 mm 4 mps 701 mmHg 60%
18:00 +19°C° 0 mm 3 mps 701 mmHg 64%
19:00 +18°C° 0 mm 3 mps 700 mmHg 70%
20:00 +16°C° 0 mm 2 mps 700 mmHg 77%
21:00 +15°C° 0 mm 2 mps 700 mmHg 84%
22:00 +15°C° 0 mm 2 mps 700 mmHg 87%
23:00 +14°C° 0 mm 2 mps 700 mmHg 90%

6 August, Friday

Time Temperature Precipitation Wind Pressure Humidity
00:00 +14°C° 0 mm 2 mps 700 mmHg 93%
01:00 +14°C° 0 mm 2 mps 699 mmHg 92%
02:00 +14°C° 0 mm 1 mps 699 mmHg 92%
03:00 +14°C° 0 mm 1 mps 699 mmHg 92%
04:00 +15°C° 0 mm 1 mps 699 mmHg 90%
05:00 +15°C° 0 mm 1 mps 699 mmHg 88%
06:00 +15°C° 0 mm 1 mps 699 mmHg 86%
07:00 +17°C° 0 mm 2 mps 699 mmHg 75%
08:00 +20°C° 0 mm 2 mps 699 mmHg 63%
09:00 +23°C° 0 mm 2 mps 700 mmHg 52%
10:00 +24°C° 0 mm 2 mps 699 mmHg 49%
11:00 +25°C° 0 mm 2 mps 699 mmHg 45%
12:00 +26°C° 0 mm 2 mps 699 mmHg 42%
13:00 +26°C° 0 mm 2 mps 699 mmHg 43%
14:00 +27°C° 0 mm 3 mps 698 mmHg 43%
15:00 +27°C° 0 mm 3 mps 698 mmHg 44%
16:00 +26°C° 0 mm 2 mps 698 mmHg 50%
17:00 +24°C° 0 mm 2 mps 697 mmHg 56%
18:00 +23°C° 0 mm 2 mps 697 mmHg 61%
19:00 +21°C° 0.1 mm 2 mps 697 mmHg 69%
20:00 +20°C° 0.1 mm 1 mps 697 mmHg 77%
21:00 +19°C° 0.1 mm 1 mps 697 mmHg 84%
22:00 +18°C° 0.2 mm 1 mps 697 mmHg 87%
23:00 +18°C° 0.2 mm 1 mps 697 mmHg 89%
Show more